Location: Silverdale
(47.6506°N, 122.6941°W)
Time: 21:28:04
(UTC+00:00)

Tiros 1 despin weight - Visible Passes

Search period start: 02 December 2023 00:00
Search period end: 12 December 2023 00:00
Orbit: 583 x 628 km, 48.2° (Epoch: 28 November)

Date Brightness Start Highest point End Pass type
(mag) Time Alt. Az. Time Alt. Az. Time Alt. Az.
02 Dec ? 02:20:59 10° SSE 02:22:26 13° SSE 02:22:26 13° SSE visible
03 Dec ? 02:31:48 10° SSW 02:34:31 22° SSE 02:34:31 22° SSE visible
04 Dec ? 02:43:20 10° SW 02:46:31 32° S 02:46:31 32° S visible
05 Dec ? 01:16:24 10° S 01:18:52 15° SE 01:21:21 10° ESE visible
05 Dec ? 02:55:13 10° SW 02:58:27 42° SSW 02:58:27 42° SSW visible
06 Dec ? 01:27:19 10° SSW 01:30:51 24° SE 01:33:31 14° E visible
06 Dec ? 03:07:19 10° WSW 03:10:19 42° SW 03:10:19 42° SW visible
07 Dec ? 01:38:52 10° SW 01:42:54 37° SSE 01:45:20 20° E visible
07 Dec ? 03:19:32 10° WSW 03:22:08 35° WSW 03:22:08 35° WSW visible
08 Dec ? 01:50:46 10° SW 01:55:01 54° SSE 01:57:07 27° E visible
08 Dec ? 03:31:49 10° W 03:33:54 27° W 03:33:54 27° W visible
09 Dec ? 02:02:51 10° WSW 02:07:12 73° SSE 02:08:51 37° E visible
09 Dec ? 03:44:07 10° W 03:45:38 21° W 03:45:38 21° W visible
10 Dec ? 02:15:03 10° WSW 02:19:27 89° SSE 02:20:34 49° E visible
10 Dec ? 03:56:24 10° W 03:57:21 16° W 03:57:21 16° W visible
11 Dec ? 00:46:12 10° SW 00:50:30 56° SSE 00:54:46 10° E visible
11 Dec ? 02:27:19 10° W 02:31:42 83° N 02:32:16 66° ENE visible
11 Dec ? 04:08:38 10° W 04:09:03 12° W 04:09:03 12° W visible
